Regional Weather Roundup
Issued by NWS

Home | Current Version | Previous Version | Text Only | Print | Product List | Glossary On
Versions: 1 2 3 4 5 6 7 8 9 10 11 12 13 14 15 16 17 18 19 20 21 22 23 24 25 26 27 28 29 30 31 32 33 34 35 36 37 38 39 40 41 42 43 44 45 46 47 48 49 50
802
ASUS43 KTOP 261408
RWRKS

WEATHER ROUNDUP FOR KANSAS
NATIONAL WEATHER SERVICE GOODLAND KS
900 AM CDT WED JUL 26 2017

NOTE:  "FAIR" INDICATES FEW OR NO CLOUDS BELOW 12,000 FEET WITH NO
SIGNIFICANT WEATHER AND/OR OBSTRUCTIONS TO VISIBILITY.

KSZ001>006-013>018-027>032-041>047-261500-
NORTHWEST KANSAS

CITY           SKY/WX    TMP DP  RH WIND       PRES   REMARKS
GOODLAND       CLOUDY    71  67  87 NW21      30.03R
HAYS           CLOUDY    83  68  60 SE3       29.92R
HILL CITY      CLOUDY    76  72  87 SE5       29.92R
RUSSELL        CLOUDY    80  70  71 E10       29.93R
$$

KSZ061>065-074>080-084>089-261500-
SOUTHWEST KANSAS

CITY           SKY/WX    TMP DP  RH WIND       PRES   REMARKS
DODGE CITY     SUNNY     84  62  47 SW18G29   29.97R
ELKHART          N/A     77  54  45 W7          N/A
GARDEN CITY    CLOUDY    78  63  59 SW12      29.98R
GREAT BEND     CLOUDY    83  68  60 S15       29.92S
LIBERAL        MOSUNNY   83  61  47 SW18      30.03R
PRATT          PTSUNNY   78  64  61 S14       29.97R
$$

KSZ066>073-081>083-090>101-261500-
SOUTHEAST KANSAS

CITY           SKY/WX    TMP DP  RH WIND       PRES   REMARKS
CHANUTE        PTSUNNY   81  72  74 S13G25    30.03R
COFFEYVILLE    MOSUNNY   82  73  74 S12G20    30.02R
HUTCHINSON     CLOUDY    82  68  62 S12       29.97R
MEDICINE LODGE   N/A     80  66  62 S13       29.96R
NEWTON         PTSUNNY   81  70  69 S17       29.98R
PARSONS        CLOUDY    80  73  79 S6        30.04R
WICHITA INTL   CLOUDY    84  71  65 S20       29.97R
WICHITA JABRA  MOSUNNY   84  70  62 S13       29.98R
WICHITA MCCONL CLOUDY    83  69  61 SW15G22   29.98S
WINFIELD       CLOUDY    81  70  69 S13       30.01R
$$

KSZ007>012-019>026-033>040-048>060-102>105-261500-
NORTHEAST KANSAS

CITY           SKY/WX    TMP DP  RH WIND       PRES   REMARKS
CONCORDIA      LGT RAIN  75  75 100 SE16      29.95F
EMPORIA        CLOUDY    78  72  81 S13       30.00R
LAWRENCE       CLOUDY    80  75  84 S5        30.01R
MANHATTAN      LGT RAIN  77  75  93 CALM      30.01R FOG
MARYSVILLE     LGT RAIN  72  72 100 SE8       30.00F
OLATHE IND     CLOUDY    79  74  84 S9        30.03R
OLATHE EXE     CLOUDY    78  75  90 SW8       30.04R
SALINA         LGT RAIN  80  74  81 SE9       29.98R
TOPEKA BILLARD LGT RAIN  78  76  93 W9        30.04R
TOPEKA FORBES  LGT RAIN  79  75  87 W8        30.05R
$$




USA.gov is the U.S. government's official web portal to all federal, state and local government web resources and services.